{"data":{"norad_id":64279,"epoch":"2026-09-20T10:16:10.648992Z","epoch_age_seconds":143880,"freshness":"FRESH","line1":"1 64279U 25120Z   26263.42790103  .00002207  00000+0  76395-4 0  9997","line2":"2 64279  53.1581 286.3140 0001006  90.1573 269.9545 15.34415380 73812","mean_motion":15.3441538,"eccentricity":0.0001006,"inclination_deg":53.1581,"raan_deg":286.314,"arg_perigee_deg":90.1573,"mean_anomaly_deg":269.9545,"bstar":7.6395e-5,"rev_number":7381,"period_min":93.846817411332,"perigee_km":461.96934405823,"apogee_km":463.34571191726,"semimajor_km":6840.7945279877,"source":"CELESTRAK","updated_at":"2026-09-21T09:00:35.286519Z"}}